This demonstration page uses our WeatherBlox Daily Observations layout. Learn more.

Left ArrowRight Arrow

Hourly Observations for September 7, 2019

Temp ( °F °C ) Dew Point ( °F °C ) Humidity (%) Winds ( mph kmh ) Pressure ( in mb ) Visibility ( mi km ) Precip ( " mm )
12:53 am 00:53 Clear 64 17.8 59 15 84 84 Calm 30.11 1020 10 16 0.00 0.00
1:53 am 01:53 Clear 63 17.2 58 14.4 84 84 ESE 5 7 30.11 1020 10 16 0.00 0.00
2:53 am 02:53 Clear 66 18.9 58 14.4 75 75 ESE 8 13 30.08 1019 10 16 0.00 0.00
3:53 am 03:53 Clear 67 19.4 58 14.4 73 73 ESE 10 17 30.06 1018 10 16 0.00 0.00
4:53 am 04:53 Clear 64 17.8 58 14.4 81 81 SE 9 15 30.06 1018 8 13 0.00 0.00
5:53 am 05:53 Mostly Cloudy 63 17.2 59 15 87 87 ESE 5 7 30.09 1019 10 16 0.00 0.00
6:53 am 06:53 Clear 64 17.8 58 14.4 81 81 SE 9 15 30.06 1018 10 16 0.00 0.00
7:53 am 07:53 Sunny 64 17.8 59 15 84 84 SSE 9 15 30.05 1018 10 16 0.00 0.00
8:53 am 08:53 Partly Cloudy 66 18.9 59 15 78 78 S 10 17 30.03 1017 10 16 0.00 0.00
9:53 am 09:53 Mostly Sunny 68 20 60 15.6 76 76 SSE 12 19 30.02 1017 10 16 0.00 0.00
10:53 am 10:53 Partly Cloudy 70 21.1 60 15.6 71 71 SSE 12 19 30.00 1016 10 16 0.00 0.00
11:05 am 11:05 Mostly Cloudy 70 21.1 60 15.6 71 71 SSE 10 17 29.96 1014 10 16 0.00 0.00
11:53 am 11:53 Cloudy 70 21.1 61 16.1 73 73 SE 8 13 29.98 1015 10 16 0.00 0.00
12:53 pm 12:53 Cloudy 70 21.1 62 16.7 76 76 SSE 7 11 29.96 1015 10 16 0.00 0.00
1:22 pm 13:22 Mostly Sunny 71 21.7 62 16.7 73 73 SE 9 15 29.90 1013 10 16 0.00 0.00
1:53 pm 13:53 Mostly Cloudy with Light Rain 70 21.1 63 17.2 79 79 SE 8 13 29.93 1014 8 13 0.00 0.00
2:08 pm 14:08 Cloudy 71 21.7 64 17.8 79 79 SE 7 11 29.89 1012 10 16 0.00 0.00
2:53 pm 14:53 Cloudy 72 22.2 64 17.8 76 76 ESE 6 9 29.93 1014 10 16 0.00 0.00
3:53 pm 15:53 Cloudy 74 23.3 65 18.3 74 74 SE 6 9 29.91 1013 10 16 0.00 0.00
4:53 pm 16:53 Cloudy 74 23.3 66 18.9 76 76 E 3 6 29.89 1012 10 16 0.00 0.00
5:38 pm 17:38 Partly Cloudy 75 23.9 66 18.9 74 74 SE 5 7 29.84 1010 10 16 0.00 0.00
5:53 pm 17:53 Mostly Sunny 75 23.9 66 18.9 74 74 E 7 11 29.89 1012 10 16 0.00 0.00
6:53 pm 18:53 Sunny 73 22.8 65 18.3 76 76 E 6 9 29.90 1012 10 16 0.00 0.00
7:53 pm 19:53 Sunny 72 22.2 65 18.3 79 79 E 5 7 29.90 1012 10 16 0.00 0.00
8:53 pm 20:53 Clear 68 20 64 17.8 87 87 ENE 3 6 29.88 1012 10 16 0.00 0.00
9:53 pm 21:53 Clear 67 19.4 64 17.8 91 91 NE 8 13 29.89 1012 10 16 0.00 0.00
10:53 pm 22:53 Clear 64 17.8 62 16.7 93 93 NE 3 6 29.90 1013 10 16 0.00 0.00
11:53 pm 23:53 Clear 64 17.8 62 16.7 93 93 NE 7 11 29.91 1013 10 16 0.00 0.00

Powered by AerisWeather